[[{"header":{"parameterUnit":"m.s-1","parameterCategory":2,"la1":30.2991,"la2":30.254,"lo1":-89.0895,"lo2":-89.0444,"dy":0.0017,"dx":0.0017,"nx":28,"ny":28,"refTime":"2024-04-17T09:00:00:Z","depth":"0","parameterNumber":2,"parameterNumberName":"U-component_of_CURRENTS"},"data":[0,0,0,0,0,0,0,0,0,0,0,0,0,0,0,0,0,0,0,0,0,0,0,0,0,0,0,0,0,0,0,0,0,0,0,0,0,0,0,0,0,0,0,0,0,0,0,0,0,0,0,0,0,0,0,0,0,0,-0.2082,-0.2083,0,-0.2081,-0.208,-0.208,-0.2037,-0.2036,-0.2036,-0.2035,-0.1958,-0.1956,-0.1955,0,0,0,0,0,0,0,0,0,0,0,0,0,-0.198,-0.1982,-0.2082,-0.2083,-0.2083,-0.2081,-0.208,-0.2079,-0.2037,-0.2036,-0.2036,-0.2035,-0.1958,-0.1957,-0.1955,0,0,0,0,0,0,0,0,0,0,0,0,0,-0.2,-0.1983,-0.2082,-0.2067,-0.2066,-0.2081,-0.208,-0.2079,-0.2037,-0.2036,-0.2036,-0.2035,-0.1959,-0.1957,-0.1954,-0.1955,0,0,-0.1947,-0.1946,0,0,0,0,0,0,0,0,-0.1999,-0.2003,-0.2068,-0.2068,-0.2067,-0.2064,-0.2016,-0.2036,-0.2037,-0.2041,-0.2035,-0.2035,-0.1991,-0.1986,-0.1979,-0.1951,-0.1948,-0.1947,-0.1945,-0.1944,-0.1944,0,0,0,0,0,0,0,-0.1998,-0.2003,-0.2075,-0.2069,-0.2068,-0.2037,-0.2039,-0.2019,-0.2014,-0.2041,-0.2039,-0.205,-0.1989,-0.1982,-0.1977,-0.1947,-0.1947,-0.1945,-0.1943,-0.1942,-0.1896,-0.1896,0,0,0,0,0,0,-0.2016,-0.2002,-0.2075,-0.2076,-0.2038,-0.204,-0.2042,-0.206,-0.2016,-0.2011,-0.205,-0.2048,-0.1986,-0.198,-0.1974,-0.1958,-0.1944,-0.1942,-0.1941,-0.1895,-0.1896,-0.1896,0,0,0,0,0,0,-0.2014,-0.2023,-0.2075,-0.2043,-0.2048,-0.2044,-0.2064,-0.2061,-0.2057,-0.2025,-0.2017,-0.2051,-0.1985,-0.1977,-0.1955,-0.1955,-0.1941,-0.1939,-0.1895,-0.1895,-0.1896,-0.1934,0,0,0,0,0,0,-0.2011,-0.2022,-0.2032,-0.2045,-0.2051,-0.2088,-0.2065,-0.2062,-0.2068,-0.2064,-0.2023,-0.2015,-0.1984,-0.1959,-0.1953,-0.1951,-0.1937,-0.1895,-0.1895,-0.1896,-0.1933,-0.1936,-0.1938,0,0,0,0,0,-0.2008,-0.203,-0.2032,-0.2041,-0.2068,-0.209,-0.2089,-0.2078,-0.2069,-0.207,-0.2039,-0.2016,-0.1957,-0.1958,-0.195,-0.1948,-0.1895,-0.1895,-0.1896,-0.1931,-0.1935,-0.1938,0,0,0,0,0,0,-0.1979,-0.2029,-0.2031,-0.2064,-0.2078,-0.2085,-0.2088,-0.2086,-0.2065,-0.2057,-0.202,-0.201,-0.1985,-0.1968,-0.1969,-0.1936,-0.1922,-0.1921,-0.1951,-0.1955,-0.1957,-0.1972,-0.1935,0,0,0,0,0,-0.1984,-0.2014,-0.2048,-0.2067,-0.2082,-0.2087,-0.2092,-0.2091,-0.2082,-0.2073,-0.204,-0.2009,-0.1982,-0.197,-0.1938,-0.1929,-0.1929,-0.1923,-0.1926,-0.1928,-0.1935,-0.1949,-0.1955,-0.1897,-0.1897,-0.1897,0,0,-0.1972,-0.2007,-0.2018,-0.2063,-0.2072,-0.2086,-0.2086,-0.2104,-0.2101,-0.2067,-0.204,-0.2013,-0.198,-0.1957,-0.1946,-0.1945,-0.1942,-0.1929,-0.1931,-0.1937,-0.195,-0.1956,-0.1961,-0.1897,-0.1897,-0.1897,0,0,-0.1964,-0.2003,-0.2021,-0.2046,-0.208,-0.2089,-0.21,-0.211,-0.2102,-0.2089,-0.2057,-0.204,-0.1995,-0.1975,-0.196,-0.1966,-0.1951,-0.1951,-0.1984,-0.1997,-0.2003,-0.2007,-0.201,-0.2014,-0.196,-0.196,-0.196,0,-0.1943,-0.1984,-0.2024,-0.205,-0.2077,-0.2093,-0.2115,-0.2108,-0.21,-0.2111,-0.2083,-0.2044,-0.2005,-0.2002,-0.1989,-0.1972,-0.1976,-0.1973,-0.2003,-0.2007,-0.2011,-0.2013,-0.2018,-0.1962,-0.1962,-0.1962,-0.1962,0,-0.1947,-0.1982,-0.1999,-0.2041,-0.207,-0.2096,-0.2118,-0.2126,-0.2123,-0.2122,-0.2118,-0.2073,-0.2058,-0.2039,-0.2006,-0.2018,-0.2009,-0.2,-0.1998,-0.202,-0.2019,-0.2024,-0.1965,-0.1964,-0.1964,-0.1963,0,0,-0.1886,-0.1985,-0.1984,-0.2029,-0.208,-0.2113,-0.2126,-0.2163,-0.2183,-0.2162,-0.2183,-0.213,-0.2123,-0.2105,-0.2073,-0.2077,-0.2088,-0.2049,-0.2049,-0.2059,-0.2116,-0.1965,-0.1955,-0.2089,-0.209,-0.2091,-0.2103,0,-0.1871,-0.1939,-0.1984,-0.2038,-0.2087,-0.2135,-0.2151,-0.2186,-0.2196,-0.2209,-0.2199,-0.2185,-0.2143,-0.2133,-0.2133,-0.2091,-0.2102,-0.2086,-0.2087,-0.2087,-0.1956,-0.1955,-0.1863,-0.1853,-0.2107,-0.2108,-0.2108,0,-0.1842,-0.1915,-0.1972,-0.2093,-0.2116,-0.2134,-0.2216,-0.2233,-0.2264,-0.2273,-0.2284,-0.2262,-0.2251,-0.221,-0.219,-0.2183,-0.2154,-0.213,-0.213,-0.1979,-0.1943,-0.1872,-0.1851,-0.1844,-0.2114,-0.2114,-0.2113,0,-0.1791,-0.1901,-0.1962,-0.1997,-0.2113,-0.2147,-0.2198,-0.2248,-0.2257,-0.2307,-0.2298,-0.2324,-0.2282,-0.2288,-0.2196,-0.221,-0.2164,-0.2185,-0.2036,-0.2026,-0.1941,-0.1919,-0.1915,-0.2192,-0.2192,-0.2192,-0.2192,0,-0.1757,-0.1801,-0.1948,-0.1977,-0.2052,-0.2145,-0.2188,-0.2239,-0.2276,-0.225,-0.2311,-0.2262,-0.2292,-0.2247,-0.2225,-0.2107,-0.2188,-0.2035,-0.2015,-0.1947,-0.1927,-0.1908,-0.1929,-0.2192,-0.2192,-0.2192,-0.2192,0,-0.165,-0.1744,-0.1827,-0.1975,-0.2017,-0.2063,-0.2149,-0.2151,-0.2223,-0.2184,-0.2186,-0.2203,-0.2139,-0.2146,-0.2123,-0.2085,-0.1988,-0.198,-0.188,-0.1845,-0.1695,-0.1721,-0.1674,-0.1636,-0.1855,-0.1851,-0.1848,0,-0.1596,-0.1628,-0.1788,-0.1809,-0.1858,-0.1946,-0.1958,-0.2084,-0.206,-0.2096,-0.2028,-0.2011,-0.1922,-0.1861,-0.1822,-0.1788,-0.1813,-0.1685,-0.1687,-0.1657,-0.1676,-0.1701,-0.1677,-0.1609,-0.1604,-0.16,-0.1597,0,-0.1474,-0.152,-0.157,-0.1641,-0.1673,-0.1736,-0.1768,-0.1761,-0.1845,-0.1836,-0.1763,-0.1729,-0.1657,-0.1566,-0.1532,-0.1508,-0.1633,-0.1596,-0.1616,-0.1507,-0.149,-0.1451,-0.1634,-0.1561,-0.1565,-0.1568,-0.1569,-0.1571,-0.1333,-0.1334,-0.1384,-0.1428,-0.1465,-0.1471,-0.1437,-0.1476,-0.1464,-0.1394,-0.1475,-0.1385,-0.1367,-0.1296,-0.1283,-0.1246,-0.1322,-0.1247,-0.1294,-0.1331,-0.1247,-0.1316,-0.1174,-0.1175,-0.1176,-0.1177,-0.1178,0,-0.1153,-0.115,-0.1164,-0.1199,-0.1151,-0.1259,-0.1238,-0.1151,-0.107,-0.1095,-0.1054,-0.1043,-0.0992,-0.1023,-0.1022,-0.0993,-0.103,-0.0993,-0.1067,-0.1067,-0.1172,-0.111,-0.0884,-0.0884,-0.0884,-0.0884,-0.0884,-0.0884,-0.1049,-0.0977,-0.0995,-0.0875,-0.0881,-0.0787,-0.0741,-0.0666,-0.0634,-0.0574,-0.0595,-0.0619,-0.0772,-0.0914,-0.0925,-0.0899,-0.0938,-0.0869,-0.0929,-0.1063,-0.1094,-0.1123,-0.1069,-0.0839,-0.0839,-0.0792,-0.0792,-0.0792]},{"header":{"parameterUnit":"m.s-1","parameterCategory":2,"la1":30.2991,"la2":30.254,"lo1":-89.0895,"lo2":-89.0444,"dy":0.0017,"dx":0.0017,"nx":28,"ny":28,"refTime":"2024-04-17T09:00:00:Z","depth":"0","parameterNumber":3,"parameterNumberName":"V-component_of_CURRENTS"},"data":[0,0,0,0,0,0,0,0,0,0,0,0,0,0,0,0,0,0,0,0,0,0,0,0,0,0,0,0,0,0,0,0,0,0,0,0,0,0,0,0,0,0,0,0,0,0,0,0,0,0,0,0,0,0,0,0,0,0,-0.0054,-0.0053,0,0.0027,0.0028,0.0029,0.0061,0.0061,0.0061,0.0061,0.0167,0.017,0.0173,0,0,0,0,0,0,0,0,0,0,0,0,0,-0.0108,-0.0108,-0.0054,-0.0053,-0.0052,0.0027,0.0028,0.0029,0.0061,0.0061,0.0061,0.006,0.0166,0.0169,0.0173,0,0,0,0,0,0,0,0,0,0,0,0,0,-0.0061,-0.0107,-0.0054,-0.0027,-0.0024,0.0026,0.0028,0.0029,0.0061,0.0061,0.0061,0.006,0.0164,0.0169,0.0173,0.021,0,0,0.0187,0.0189,0,0,0,0,0,0,0,0,-0.0064,-0.0059,-0.0032,-0.0029,-0.0025,0.0033,0.0048,0.0091,0.0062,0.003,0.0061,0.006,0.0124,0.0132,0.0149,0.0215,0.0219,0.0188,0.0191,0.0193,0.0194,0,0,0,0,0,0,0,-0.0067,-0.0062,-0.0021,-0.0031,-0.0027,0.0006,0.0011,0.0056,0.0079,0.0033,0.0035,0.0043,0.0126,0.0144,0.0152,0.0221,0.0188,0.0192,0.0195,0.0196,0.0316,0.0317,0,0,0,0,0,0,-0.0082,-0.0065,-0.0024,-0.0019,-0.0047,0.0007,0.0013,0.0015,0.0078,0.0087,0.0043,0.0044,0.0137,0.0146,0.0155,0.0187,0.0193,0.0197,0.02,0.0316,0.0317,0.0317,0,0,0,0,0,0,-0.0084,-0.0079,-0.0027,-0.004,-0.0032,0.0007,0.001,0.0017,0.0035,0.0086,0.0095,0.0053,0.0137,0.0149,0.0197,0.0192,0.0199,0.0203,0.0316,0.0316,0.0317,0.0261,0,0,0,0,0,0,-0.0086,-0.0081,-0.0085,-0.0042,-0.0032,0.0002,0.0011,0.0019,0.004,0.0042,0.0098,0.0107,0.0137,0.019,0.0202,0.0199,0.0207,0.0315,0.0316,0.0317,0.0262,0.0259,0.0257,0,0,0,0,0,-0.0088,-0.0094,-0.0086,-0.0081,-0.0039,0.0002,0.0011,0.0038,0.004,0.0051,0.0088,0.0105,0.0203,0.0195,0.0208,0.0206,0.0315,0.0316,0.0317,0.0263,0.026,0.0257,0,0,0,0,0,0,-0.0125,-0.009,-0.008,-0.0078,-0.0041,0.0007,0.0017,0.0037,0.0075,0.0075,0.0119,0.0132,0.0169,0.0202,0.0191,0.0244,0.0259,0.0262,0.0214,0.0211,0.0209,0.0184,0.0211,0,0,0,0,0,-0.0135,-0.013,-0.0086,-0.0085,-0.0067,-0.0025,-0.0007,0.0015,0.0054,0.007,0.011,0.015,0.0185,0.0208,0.0248,0.0285,0.0303,0.0291,0.0288,0.0286,0.0276,0.0285,0.0282,0.032,0.032,0.032,0,0,-0.0153,-0.0131,-0.0131,-0.0092,-0.0063,-0.0039,-0.0015,0.0013,0.0029,0.0077,0.0111,0.0146,0.0194,0.0228,0.0247,0.0254,0.029,0.0287,0.0284,0.0276,0.0286,0.0282,0.0278,0.0321,0.0321,0.0321,0,0,-0.0175,-0.0162,-0.0158,-0.0126,-0.0082,-0.0053,-0.0046,0.0006,0.0025,0.0068,0.0096,0.0127,0.0196,0.0218,0.0239,0.025,0.0276,0.0265,0.0234,0.0243,0.0239,0.0236,0.0272,0.0272,0.0264,0.0264,0.0264,0,-0.0199,-0.0189,-0.015,-0.0129,-0.0114,-0.0062,-0.0052,-0.0018,0.0042,0.005,0.0073,0.0145,0.0186,0.0208,0.0211,0.0242,0.026,0.0238,0.0236,0.0234,0.0231,0.0269,0.027,0.0261,0.0261,0.0262,0.0262,0,-0.0208,-0.0199,-0.0192,-0.0155,-0.0129,-0.0112,-0.0061,-0.0036,-0.0007,0.0022,0.0055,0.0111,0.0146,0.0166,0.0196,0.0198,0.0223,0.0229,0.0236,0.0223,0.0265,0.0267,0.0257,0.0258,0.0259,0.026,0,0,-0.0269,-0.0214,-0.0213,-0.0209,-0.0146,-0.0134,-0.01,-0.0068,-0.0066,-0.0006,-0.0002,0.006,0.008,0.0105,0.0141,0.0154,0.0165,0.0181,0.0183,0.0203,0.0202,0.026,0.0269,0.0164,0.0164,0.0163,0.0244,0,-0.0293,-0.0283,-0.024,-0.0237,-0.023,-0.0175,-0.0153,-0.0117,-0.008,-0.0057,-0.0009,0.0018,0.006,0.0072,0.009,0.0148,0.0165,0.0144,0.0224,0.0226,0.0267,0.0271,0.0295,0.0371,0.0246,0.0247,0.0247,0,-0.0313,-0.031,-0.031,-0.0292,-0.0284,-0.0268,-0.0247,-0.022,-0.0167,-0.0137,-0.0104,-0.0059,-0.0017,0.0013,0.0092,0.0076,0.013,0.0174,0.0179,0.0249,0.0288,0.0362,0.038,0.0459,0.025,0.025,0.025,0,-0.0383,-0.0362,-0.0376,-0.0365,-0.0324,-0.0321,-0.0303,-0.0252,-0.0233,-0.0193,-0.0167,-0.0121,-0.0072,-0.0024,0.0096,0.0083,0.0191,0.0184,0.0288,0.0294,0.0339,0.035,0.0428,0.0221,0.0221,0.0221,0.0221,0,-0.0423,-0.0434,-0.0414,-0.0419,-0.0444,-0.0391,-0.0402,-0.0367,-0.0313,-0.0274,-0.022,-0.0164,-0.008,0.0008,0.0079,0.0212,0.0182,0.0285,0.0313,0.0326,0.0333,0.0424,0.0448,0.0224,0.0223,0.0223,0.0222,0,-0.0471,-0.0457,-0.0478,-0.0468,-0.0469,-0.0487,-0.0457,-0.0453,-0.0391,-0.0332,-0.0314,-0.0193,-0.0065,0.0036,0.0152,0.0218,0.0371,0.0366,0.0395,0.0425,0.0571,0.0591,0.069,0.0738,0.0471,0.0473,0.0475,0,-0.0482,-0.0501,-0.0527,-0.0544,-0.0535,-0.0553,-0.055,-0.0501,-0.0466,-0.0325,-0.0283,-0.0148,-0.0015,0.0181,0.03,0.0433,0.0475,0.0529,0.0498,0.0589,0.063,0.0633,0.0666,0.0548,0.055,0.0551,0.0553,0,-0.0504,-0.052,-0.0537,-0.0581,-0.0597,-0.0621,-0.0596,-0.0574,-0.047,-0.0362,-0.018,-0.0066,0.0124,0.031,0.0469,0.0534,0.0585,0.0568,0.0642,0.0682,0.0708,0.0766,0.0505,0.0567,0.0566,0.0565,0.0564,0.0563,-0.0509,-0.0536,-0.0557,-0.0597,-0.0626,-0.0627,-0.0602,-0.0515,-0.04,-0.0136,-0.0066,0.0209,0.0313,0.0547,0.0627,0.0775,0.0729,0.0807,0.0822,0.0816,0.0862,0.0652,0.0755,0.0754,0.0754,0.0754,0.0754,0,-0.0484,-0.0514,-0.056,-0.0588,-0.0605,-0.0624,-0.0574,-0.0479,-0.0269,-0.0012,0.0234,0.052,0.0689,0.0791,0.0941,0.1025,0.1013,0.1055,0.1051,0.107,0.0873,0.0876,0.1033,0.1033,0.1033,0.1033,0.1033,0.1033,-0.0464,-0.0491,-0.0522,-0.0536,-0.0552,-0.051,-0.0462,-0.0288,-0.0093,0.0319,0.0623,0.0817,0.0896,0.1086,0.1235,0.1237,0.13,0.1286,0.1326,0.1178,0.1155,0.1133,0.1142,0.1352,0.1353,0.1512,0.1514,0.1515]}],[{"header":{"parameterUnit":"m.s-1","parameterCategory":2,"la1":30.2991,"la2":30.254,"lo1":-89.0895,"lo2":-89.0444,"dy":0.0017,"dx":0.0017,"nx":28,"ny":28,"refTime":"2024-04-17T09:00:00:Z","depth":"2","parameterNumber":2,"parameterNumberName":"U-component_of_CURRENTS"},"data":[0,0,0,0,0,0,0,0,0,0,0,0,0,0,0,0,0,0,0,0,0,0,0,0,0,0,0,0,0,0,0,0,0,0,0,0,0,0,0,0,0,0,0,0,0,0,0,0,0,0,0,0,0,0,0,0,0,0,-0.1595,-0.1595,0,-0.1562,-0.1562,-0.1561,-0.1572,-0.1573,-0.1573,-0.1574,-0.1564,-0.1563,-0.1562,0,0,0,0,0,0,0,0,0,0,0,0,0,-0.1558,-0.1559,-0.1595,-0.1594,-0.1594,-0.1563,-0.1562,-0.1561,-0.1572,-0.1573,-0.1574,-0.1575,-0.1564,-0.1563,-0.1561,0,0,0,0,0,0,0,0,0,0,0,0,0,-0.1553,-0.1559,-0.1595,-0.1597,-0.1597,-0.1563,-0.1562,-0.1561,-0.1571,-0.1573,-0.1574,-0.1575,-0.1564,-0.1563,-0.1561,-0.1526,0,0,-0.1556,-0.1556,0,0,0,0,0,0,0,0,-0.1553,-0.1554,-0.1597,-0.1597,-0.1597,-0.1574,-0.1545,-0.1551,-0.1571,-0.1579,-0.1574,-0.1576,-0.1569,-0.1567,-0.1556,-0.1526,-0.1525,-0.1556,-0.1555,-0.1555,-0.1554,0,0,0,0,0,0,0,-0.1554,-0.1555,-0.158,-0.1596,-0.1596,-0.1562,-0.1564,-0.1545,-0.1567,-0.1579,-0.158,-0.1578,-0.1569,-0.1557,-0.1556,-0.1525,-0.1556,-0.1555,-0.1554,-0.1553,-0.1489,-0.1488,0,0,0,0,0,0,-0.1566,-0.1556,-0.1581,-0.1579,-0.1579,-0.1563,-0.1564,-0.1579,-0.1566,-0.1566,-0.1577,-0.1579,-0.1559,-0.1558,-0.1555,-0.1531,-0.1555,-0.1553,-0.1552,-0.149,-0.1489,-0.1488,0,0,0,0,0,0,-0.1565,-0.1569,-0.1583,-0.1567,-0.1567,-0.1563,-0.1578,-0.1577,-0.1584,-0.1565,-0.1566,-0.1588,-0.156,-0.1558,-0.1547,-0.153,-0.1552,-0.1551,-0.1491,-0.149,-0.1489,-0.1471,0,0,0,0,0,0,-0.1564,-0.1569,-0.1583,-0.1569,-0.1568,-0.1569,-0.1577,-0.1576,-0.1581,-0.1583,-0.1574,-0.1573,-0.1561,-0.155,-0.1546,-0.1528,-0.155,-0.1492,-0.149,-0.1489,-0.1472,-0.1469,-0.1467,0,0,0,0,0,-0.1563,-0.1586,-0.1585,-0.1588,-0.1589,-0.1569,-0.1566,-0.1565,-0.158,-0.1577,-0.1573,-0.1574,-0.1538,-0.1548,-0.1543,-0.1525,-0.1492,-0.1491,-0.1489,-0.1474,-0.147,-0.1467,0,0,0,0,0,0,-0.1589,-0.1588,-0.1587,-0.1612,-0.1592,-0.1572,-0.1575,-0.1573,-0.1565,-0.1579,-0.1565,-0.1563,-0.1541,-0.1539,-0.155,-0.1503,-0.1515,-0.1512,-0.1504,-0.1501,-0.1498,-0.1524,-0.1548,0,0,0,0,0,-0.1597,-0.1609,-0.1595,-0.1612,-0.1608,-0.1592,-0.1587,-0.1586,-0.1577,-0.1577,-0.1566,-0.1554,-0.1524,-0.1522,-0.1498,-0.1478,-0.1515,-0.1464,-0.1461,-0.1458,-0.1476,-0.1569,-0.1577,-0.1483,-0.1483,-0.1483,0,0,-0.161,-0.1612,-0.1619,-0.1616,-0.1606,-0.1588,-0.1593,-0.1594,-0.1577,-0.1575,-0.1559,-0.1541,-0.1516,-0.1485,-0.1476,-0.1488,-0.1487,-0.1456,-0.1454,-0.1474,-0.1568,-0.1578,-0.1587,-0.1482,-0.1482,-0.1482,0,0,-0.1623,-0.1645,-0.1646,-0.163,-0.1619,-0.1604,-0.1608,-0.1591,-0.1586,-0.1561,-0.155,-0.1533,-0.1494,-0.1473,-0.1455,-0.1426,-0.1465,-0.1414,-0.1427,-0.1516,-0.1526,-0.1535,-0.1528,-0.1538,-0.142,-0.142,-0.142,0,-0.1634,-0.1645,-0.164,-0.1628,-0.1631,-0.1612,-0.1612,-0.1582,-0.1562,-0.1585,-0.1558,-0.1537,-0.1485,-0.1479,-0.1435,-0.1419,-0.1463,-0.1441,-0.1517,-0.1527,-0.1538,-0.1529,-0.154,-0.1419,-0.1419,-0.142,-0.142,0,-0.1631,-0.1642,-0.1644,-0.1624,-0.162,-0.1622,-0.159,-0.1593,-0.1588,-0.1577,-0.1584,-0.1523,-0.1534,-0.1481,-0.1427,-0.1462,-0.1461,-0.15,-0.1534,-0.1547,-0.1535,-0.1546,-0.1418,-0.1418,-0.1418,-0.1419,0,0,-0.1645,-0.1645,-0.1642,-0.1668,-0.1633,-0.1649,-0.1623,-0.1632,-0.1681,-0.1623,-0.1684,-0.1562,-0.1579,-0.1558,-0.1512,-0.1535,-0.1559,-0.1536,-0.1541,-0.1541,-0.1714,-0.1555,-0.1551,-0.1646,-0.165,-0.1652,-0.1654,0,-0.1643,-0.1657,-0.1644,-0.1669,-0.1687,-0.1686,-0.1689,-0.1699,-0.1697,-0.1741,-0.1695,-0.1704,-0.1594,-0.1606,-0.1612,-0.158,-0.1601,-0.1552,-0.1691,-0.1693,-0.1565,-0.1564,-0.1451,-0.1432,-0.1665,-0.1667,-0.1668,0,-0.1625,-0.1658,-0.1679,-0.1766,-0.1779,-0.1783,-0.187,-0.1867,-0.1896,-0.1905,-0.1917,-0.1891,-0.1846,-0.1789,-0.1771,-0.176,-0.1735,-0.1707,-0.171,-0.1588,-0.1558,-0.147,-0.1445,-0.1687,-0.1686,-0.1684,-0.1683,0,-0.1648,-0.1691,-0.1734,-0.1743,-0.1803,-0.185,-0.1892,-0.1933,-0.1917,-0.2013,-0.1997,-0.2044,-0.1978,-0.2023,-0.1844,-0.1867,-0.1836,-0.1887,-0.1725,-0.1711,-0.1651,-0.1625,-0.1946,-0.1946,-0.1946,-0.1946,-0.1946,0,-0.1648,-0.1687,-0.1765,-0.1783,-0.1866,-0.1925,-0.1981,-0.204,-0.2064,-0.2028,-0.2077,-0.2012,-0.2037,-0.1968,-0.1929,-0.1791,-0.1911,-0.172,-0.1719,-0.1626,-0.16,-0.1869,-0.186,-0.1946,-0.1946,-0.1946,-0.1946,0,-0.1625,-0.166,-0.1723,-0.1833,-0.1851,-0.1919,-0.1928,-0.1943,-0.2016,-0.1962,-0.1967,-0.1951,-0.1887,-0.1856,-0.1865,-0.1806,-0.1776,-0.171,-0.1523,-0.15,-0.1585,-0.1575,-0.1615,-0.161,-0.1605,-0.1602,-0.1599,0,-0.1607,-0.1637,-0.1721,-0.1715,-0.1744,-0.1809,-0.1789,-0.1874,-0.1844,-0.186,-0.1799,-0.176,-0.166,-0.1588,-0.1555,-0.1526,-0.1596,-0.1393,-0.142,-0.1565,-0.1561,-0.1558,-0.1554,-0.1312,-0.1307,-0.1303,-0.1299,0,-0.1569,-0.1592,-0.1619,-0.1624,-0.1609,-0.158,-0.1587,-0.1557,-0.1621,-0.1597,-0.1537,-0.1499,-0.141,-0.1315,-0.1261,-0.1237,-0.1409,-0.1302,-0.1568,-0.1387,-0.1274,-0.1271,-0.1279,-0.1262,-0.1265,-0.1268,-0.127,-0.1272,-0.1497,-0.1501,-0.1509,-0.1512,-0.1464,-0.1375,-0.1312,-0.1309,-0.1265,-0.1242,-0.1281,-0.12,-0.1193,-0.1047,-0.1001,-0.0993,-0.1104,-0.1108,-0.1125,-0.1147,-0.1085,-0.0969,-0.0883,-0.0884,-0.0885,-0.0887,-0.0888,0,-0.141,-0.1396,-0.1387,-0.1334,-0.1208,-0.1245,-0.1158,-0.1081,-0.101,-0.1027,-0.1,-0.087,-0.0805,-0.0809,-0.0739,-0.0741,-0.0794,-0.0724,-0.0811,-0.0846,-0.0878,-0.0809,-0.0531,-0.053,-0.0529,-0.0528,0,0,-0.134,-0.1295,-0.1311,-0.1101,-0.1033,-0.084,-0.0773,-0.0718,-0.0716,-0.0677,-0.0655,-0.0725,-0.0747,-0.0619,-0.0614,-0.0562,-0.0704,-0.0536,-0.0817,-0.0952,-0.0983,-0.1084,-0.1012,0,0,0,0,0]},{"header":{"parameterUnit":"m.s-1","parameterCategory":2,"la1":30.2991,"la2":30.254,"lo1":-89.0895,"lo2":-89.0444,"dy":0.0017,"dx":0.0017,"nx":28,"ny":28,"refTime":"2024-04-17T09:00:00:Z","depth":"2","parameterNumber":3,"parameterNumberName":"V-component_of_CURRENTS"},"data":[0,0,0,0,0,0,0,0,0,0,0,0,0,0,0,0,0,0,0,0,0,0,0,0,0,0,0,0,0,0,0,0,0,0,0,0,0,0,0,0,0,0,0,0,0,0,0,0,0,0,0,0,0,0,0,0,0,0,-0.0425,-0.0424,0,-0.0387,-0.0386,-0.0385,-0.0377,-0.0377,-0.0378,-0.0378,-0.0306,-0.0304,-0.0302,0,0,0,0,0,0,0,0,0,0,0,0,0,-0.0399,-0.04,-0.0425,-0.0424,-0.0424,-0.0387,-0.0386,-0.0385,-0.0377,-0.0377,-0.0378,-0.0378,-0.0307,-0.0304,-0.0302,0,0,0,0,0,0,0,0,0,0,0,0,0,-0.0389,-0.04,-0.0425,-0.0417,-0.0416,-0.0387,-0.0386,-0.0385,-0.0377,-0.0377,-0.0378,-0.0379,-0.0308,-0.0305,-0.0301,-0.0267,0,0,-0.0291,-0.0289,0,0,0,0,0,0,0,0,-0.039,-0.039,-0.0418,-0.0417,-0.0416,-0.0389,-0.035,-0.0345,-0.0377,-0.039,-0.0378,-0.0379,-0.0331,-0.0326,-0.0316,-0.0264,-0.0261,-0.029,-0.0288,-0.0287,-0.0286,0,0,0,0,0,0,0,-0.039,-0.0391,-0.0408,-0.0418,-0.0416,-0.0383,-0.0383,-0.0349,-0.0356,-0.0389,-0.0388,-0.0387,-0.033,-0.0319,-0.0314,-0.026,-0.029,-0.0287,-0.0285,-0.0284,-0.0192,-0.0192,0,0,0,0,0,0,-0.0403,-0.0392,-0.0409,-0.0407,-0.0406,-0.0384,-0.0384,-0.0395,-0.0357,-0.0352,-0.0386,-0.0386,-0.0325,-0.0318,-0.0311,-0.0272,-0.0287,-0.0284,-0.0282,-0.0192,-0.0192,-0.0191,0,0,0,0,0,0,-0.0402,-0.0405,-0.0411,-0.0399,-0.0398,-0.0385,-0.0397,-0.0394,-0.0392,-0.0355,-0.035,-0.0388,-0.0325,-0.0316,-0.0287,-0.0269,-0.0282,-0.0279,-0.0193,-0.0192,-0.0192,-0.0192,0,0,0,0,0,0,-0.0402,-0.0406,-0.042,-0.04,-0.0399,-0.039,-0.0397,-0.0393,-0.039,-0.039,-0.0355,-0.0348,-0.0325,-0.0292,-0.0283,-0.0265,-0.0276,-0.0193,-0.0193,-0.0192,-0.0192,-0.0191,-0.0191,0,0,0,0,0,-0.0401,-0.0421,-0.0421,-0.0423,-0.0419,-0.0389,-0.0385,-0.0376,-0.039,-0.0379,-0.0364,-0.035,-0.0282,-0.0289,-0.0279,-0.0259,-0.0194,-0.0193,-0.0192,-0.0193,-0.0192,-0.0191,0,0,0,0,0,0,-0.0426,-0.0422,-0.0421,-0.0442,-0.0415,-0.0389,-0.0388,-0.0381,-0.0362,-0.0371,-0.0342,-0.0333,-0.0301,-0.0283,-0.0292,-0.0232,-0.0236,-0.0233,-0.024,-0.0239,-0.0238,-0.0231,-0.0273,0,0,0,0,0,-0.0436,-0.0447,-0.0426,-0.0441,-0.0432,-0.0411,-0.0402,-0.0393,-0.0373,-0.0367,-0.034,-0.0317,-0.0287,-0.0268,-0.0238,-0.0202,-0.0181,-0.0185,-0.0184,-0.0183,-0.0172,-0.0142,-0.0137,-0.0189,-0.0189,-0.0189,0,0,-0.0453,-0.045,-0.0459,-0.0446,-0.0431,-0.0394,-0.0407,-0.0395,-0.0363,-0.036,-0.032,-0.0311,-0.0279,-0.024,-0.0224,-0.0223,-0.0156,-0.0182,-0.0182,-0.017,-0.014,-0.0135,-0.0131,-0.0188,-0.0188,-0.0188,0,0,-0.0467,-0.0485,-0.0484,-0.0452,-0.0426,-0.0402,-0.04,-0.0371,-0.036,-0.0322,-0.0316,-0.0297,-0.0249,-0.0218,-0.0198,-0.0173,-0.0156,-0.0174,-0.0157,-0.0128,-0.0123,-0.0119,-0.0079,-0.0071,-0.0171,-0.0171,-0.0171,0,-0.0487,-0.0479,-0.0476,-0.0443,-0.0421,-0.0403,-0.0373,-0.0344,-0.0307,-0.0305,-0.0309,-0.0258,-0.0229,-0.0183,-0.0176,-0.0167,-0.0155,-0.0164,-0.0127,-0.0122,-0.0117,-0.0077,-0.0068,-0.017,-0.017,-0.017,-0.017,0,-0.0479,-0.0459,-0.0454,-0.0406,-0.0378,-0.0354,-0.0308,-0.029,-0.0285,-0.0263,-0.0238,-0.0207,-0.0183,-0.0169,-0.0159,-0.0118,-0.0121,-0.0133,-0.0129,-0.0112,-0.0071,-0.0062,-0.017,-0.017,-0.017,-0.017,0,0,-0.0562,-0.0468,-0.0467,-0.0436,-0.036,-0.0348,-0.0289,-0.025,-0.0246,-0.0204,-0.0192,-0.0136,-0.0152,-0.013,-0.0122,-0.009,-0.0041,-0.0101,-0.01,-0.0061,0.0024,0.0039,0.0051,-0.0061,-0.0059,-0.0058,0.0042,0,-0.0558,-0.0499,-0.0448,-0.0389,-0.0357,-0.0309,-0.0265,-0.0229,-0.0207,-0.0187,-0.0157,-0.014,-0.0125,-0.0135,-0.0094,-0.0063,-0.0019,-0.0066,0.0001,0.0004,0.0016,0.0061,0.0046,0.0134,0.0051,0.0052,0.0054,0,-0.057,-0.0526,-0.047,-0.0397,-0.0386,-0.0347,-0.0317,-0.0272,-0.0223,-0.0211,-0.0179,-0.0163,-0.01,-0.0106,-0.0008,-0.0049,-0.0006,0.0027,0.003,0.0054,0.0037,0.0102,0.0154,0.0069,0.0068,0.0067,0.0066,0,-0.0649,-0.0553,-0.052,-0.0485,-0.0391,-0.0383,-0.0351,-0.0301,-0.0276,-0.0234,-0.0217,-0.0157,-0.0123,-0.0064,0.0017,-0.0005,0.0121,0.0098,0.0164,0.0166,0.0175,0.0175,0.0177,0.0177,0.0176,0.0176,0.0176,0,-0.067,-0.0649,-0.056,-0.054,-0.0529,-0.0453,-0.0446,-0.0408,-0.0345,-0.0305,-0.0248,-0.0199,-0.0115,-0.0034,0.0025,0.0136,0.0134,0.019,0.0199,0.0174,0.0173,0.0127,0.012,0.018,0.0179,0.0178,0.0178,0,-0.0758,-0.0685,-0.0656,-0.058,-0.0559,-0.0569,-0.0494,-0.048,-0.0416,-0.0355,-0.0337,-0.0219,-0.0109,-0.0014,0.0101,0.0156,0.0245,0.0282,0.0257,0.0261,0.027,0.0262,0.0371,0.0372,0.0373,0.0374,0.0375,0,-0.0791,-0.0781,-0.072,-0.0711,-0.0678,-0.0657,-0.0628,-0.0538,-0.0495,-0.0356,-0.0322,-0.0198,-0.0091,0.0091,0.0197,0.032,0.0301,0.0372,0.0337,0.0296,0.0293,0.0283,0.0273,0.0353,0.0354,0.0355,0.0355,0,-0.0867,-0.0857,-0.0834,-0.0819,-0.0792,-0.0741,-0.0685,-0.065,-0.052,-0.0433,-0.0292,-0.0195,-0.0003,0.0144,0.0296,0.0352,0.0346,0.0387,0.0364,0.0298,0.0285,0.028,0.027,0.036,0.0359,0.0359,0.0359,0.0358,-0.0945,-0.0966,-0.0942,-0.0931,-0.0893,-0.0824,-0.0786,-0.0694,-0.0593,-0.0444,-0.03,-0.015,0.0021,0.022,0.0345,0.0422,0.0416,0.0426,0.0422,0.0418,0.0389,0.0379,0.0466,0.0466,0.0467,0.0467,0.0467,0,-0.1019,-0.1036,-0.1045,-0.1006,-0.0961,-0.0913,-0.0813,-0.0748,-0.0631,-0.0472,-0.0314,-0.0109,0.0074,0.0209,0.036,0.0476,0.0447,0.0469,0.0422,0.0417,0.0413,0.0382,0.0459,0.0459,0.0459,0.0459,0,0,-0.1058,-0.1097,-0.1097,-0.1061,-0.1022,-0.0932,-0.0867,-0.0771,-0.0653,-0.0481,-0.0357,-0.0175,0.0046,0.0154,0.0314,0.0389,0.036,0.0377,0.0373,0.0296,0.029,0.0382,0.0328,0,0,0,0,0]}],[{"header":{"parameterUnit":"m.s-1","parameterCategory":2,"la1":30.2991,"la2":30.254,"lo1":-89.0895,"lo2":-89.0444,"dy":0.0017,"dx":0.0017,"nx":28,"ny":28,"refTime":"2024-04-17T09:00:00:Z","depth":"4","parameterNumber":2,"parameterNumberName":"U-component_of_CURRENTS"},"data":[0,0,0,0,0,0,0,0,0,0,0,0,0,0,0,0,0,0,0,0,0,0,0,0,0,0,0,0,0,0,0,0,0,0,0,0,0,0,0,0,0,0,0,0,0,0,0,0,0,0,0,0,0,0,0,0,0,0,-0.0591,-0.0591,0,-0.0581,-0.0581,-0.0581,-0.0573,-0.0573,-0.0573,-0.0573,-0.0528,-0.0527,-0.0526,0,0,0,0,0,0,0,0,0,0,0,0,0,-0.0582,-0.0582,-0.0591,-0.0591,-0.0591,-0.0581,-0.0581,-0.0581,-0.0573,-0.0573,-0.0573,-0.0573,-0.0528,-0.0527,-0.0525,0,0,0,0,0,0,0,0,0,0,0,0,0,-0.058,-0.0583,-0.0591,-0.0586,-0.0585,-0.0581,-0.0581,-0.0581,-0.0573,-0.0573,-0.0573,-0.0573,-0.0529,-0.0527,-0.0525,-0.0516,0,0,-0.052,-0.0519,0,0,0,0,0,0,0,0,-0.058,-0.058,-0.0587,-0.0586,-0.0586,-0.0579,-0.0562,-0.0558,-0.0573,-0.0577,-0.0573,-0.0573,-0.0542,-0.0539,-0.0537,-0.0513,-0.0512,-0.052,-0.0519,-0.0518,-0.0517,0,0,0,0,0,0,0,-0.058,-0.0581,-0.0586,-0.0587,-0.0586,-0.0578,-0.0577,-0.0561,-0.0559,-0.0577,-0.0576,-0.0576,-0.0541,-0.0539,-0.0536,-0.0511,-0.052,-0.0518,-0.0517,-0.0516,-0.05,-0.0501,0,0,0,0,0,0,-0.0584,-0.0581,-0.0587,-0.0586,-0.0583,-0.0578,-0.0578,-0.0581,-0.056,-0.0557,-0.0576,-0.0576,-0.0542,-0.0538,-0.0534,-0.0544,-0.0518,-0.0516,-0.0515,-0.05,-0.05,-0.0501,0,0,0,0,0,0,-0.0584,-0.0585,-0.0587,-0.0584,-0.0583,-0.0578,-0.0582,-0.058,-0.0586,-0.056,-0.0556,-0.0584,-0.0542,-0.0537,-0.0528,-0.0541,-0.0516,-0.0514,-0.0499,-0.05,-0.0501,-0.0549,0,0,0,0,0,0,-0.0584,-0.0585,-0.0589,-0.0584,-0.0584,-0.0587,-0.0582,-0.058,-0.0586,-0.0585,-0.0565,-0.056,-0.0541,-0.0531,-0.0526,-0.0539,-0.0513,-0.0498,-0.0499,-0.05,-0.0547,-0.0552,-0.0556,0,0,0,0,0,-0.0584,-0.0587,-0.059,-0.059,-0.059,-0.0588,-0.0587,-0.0582,-0.0586,-0.0588,-0.0578,-0.0561,-0.0535,-0.0529,-0.0524,-0.0536,-0.0497,-0.0499,-0.05,-0.0545,-0.0551,-0.0556,0,0,0,0,0,0,-0.0583,-0.0586,-0.0589,-0.0593,-0.0593,-0.0587,-0.0589,-0.059,-0.0585,-0.0587,-0.0565,-0.056,-0.0558,-0.0541,-0.0535,-0.0536,-0.0515,-0.0515,-0.0551,-0.0556,-0.056,-0.056,-0.0511,0,0,0,0,0,-0.0587,-0.0591,-0.0592,-0.0596,-0.0599,-0.0598,-0.0599,-0.0598,-0.0592,-0.0591,-0.058,-0.0569,-0.0559,-0.0552,-0.0539,-0.0536,-0.0539,-0.0542,-0.0546,-0.055,-0.0547,-0.0577,-0.0584,-0.0505,-0.0505,-0.0505,0,0,-0.0587,-0.059,-0.0593,-0.0596,-0.0598,-0.0606,-0.0599,-0.0603,-0.061,-0.0585,-0.0594,-0.0583,-0.0562,-0.0561,-0.0559,-0.0548,-0.0576,-0.0552,-0.0555,-0.055,-0.0579,-0.0587,-0.0594,-0.0506,-0.0506,-0.0506,0,0,-0.0589,-0.0596,-0.0602,-0.0604,-0.061,-0.0614,-0.062,-0.0622,-0.0625,-0.0629,-0.0617,-0.0614,-0.06,-0.0589,-0.0581,-0.0601,-0.0599,-0.0602,-0.0623,-0.0653,-0.066,-0.0666,-0.0689,-0.0696,-0.0604,-0.0604,-0.0604,0,-0.0589,-0.06,-0.0602,-0.0608,-0.0617,-0.0622,-0.0634,-0.0636,-0.0636,-0.0643,-0.0637,-0.0629,-0.0613,-0.0611,-0.062,-0.0611,-0.0629,-0.0605,-0.066,-0.0666,-0.0671,-0.0693,-0.0701,-0.0606,-0.0606,-0.0606,-0.0606,0,-0.0594,-0.0606,-0.0611,-0.0626,-0.0635,-0.0645,-0.0654,-0.0667,-0.0677,-0.068,-0.0686,-0.0665,-0.0662,-0.0659,-0.0644,-0.0671,-0.0672,-0.0665,-0.0649,-0.0682,-0.0703,-0.071,-0.061,-0.0609,-0.0608,-0.0608,0,0,-0.058,-0.061,-0.0613,-0.063,-0.0648,-0.0659,-0.0679,-0.0699,-0.0726,-0.0716,-0.0742,-0.0718,-0.0714,-0.0704,-0.0688,-0.0705,-0.0761,-0.0706,-0.0706,-0.0732,-0.0834,-0.0774,-0.0776,-0.0774,-0.0775,-0.0776,-0.0837,0,-0.0585,-0.0612,-0.0624,-0.0656,-0.0673,-0.069,-0.0718,-0.0737,-0.0752,-0.0779,-0.0756,-0.0773,-0.0729,-0.0742,-0.0748,-0.0753,-0.0781,-0.0745,-0.0793,-0.0794,-0.074,-0.0782,-0.078,-0.0842,-0.0844,-0.0845,-0.0846,0,-0.0578,-0.0605,-0.0638,-0.0689,-0.0701,-0.0723,-0.0778,-0.0801,-0.0832,-0.0844,-0.0842,-0.0838,-0.0836,-0.0815,-0.0827,-0.0811,-0.0831,-0.0835,-0.0837,-0.0766,-0.0747,-0.0798,-0.0859,-0.0858,-0.0857,-0.0856,-0.0855,0,-0.0561,-0.0611,-0.0645,-0.0657,-0.0715,-0.0741,-0.078,-0.0821,-0.0871,-0.089,-0.0939,-0.0907,-0.0935,-0.0921,-0.0915,-0.0888,-0.0952,-0.0915,-0.0879,-0.0875,-0.089,-0.0882,-0.0959,-0.0959,-0.0959,-0.0959,-0.0958,0,-0.0543,-0.057,-0.0647,-0.0655,-0.0722,-0.0758,-0.0828,-0.0854,-0.093,-0.098,-0.0977,-0.1,-0.0975,-0.1,-0.0959,-0.0938,-0.0989,-0.0888,-0.0889,-0.0909,-0.0903,-0.0895,-0.0887,-0.0961,-0.096,-0.096,-0.096,0,-0.0501,-0.0544,-0.0589,-0.0671,-0.0706,-0.0751,-0.0875,-0.0929,-0.1,-0.1069,-0.109,-0.1117,-0.1097,-0.1085,-0.1078,-0.1019,-0.0989,-0.0988,-0.1027,-0.1028,-0.0877,-0.087,-0.0917,-0.0916,-0.0915,-0.0913,-0.0913,0,-0.0476,-0.0492,-0.0597,-0.0636,-0.0673,-0.0763,-0.0832,-0.0937,-0.0996,-0.1106,-0.1132,-0.1176,-0.1158,-0.1094,-0.1069,-0.1009,-0.0995,-0.1002,-0.0904,-0.0878,-0.0874,-0.087,-0.0865,-0.091,-0.091,-0.091,-0.0909,0,-0.0422,-0.0464,-0.0506,-0.0599,-0.0671,-0.0766,-0.0863,-0.0926,-0.1033,-0.1132,-0.1125,-0.1102,-0.1101,-0.1021,-0.1032,-0.0973,-0.0986,-0.0987,-0.0988,-0.0895,-0.087,-0.0866,-0.0864,-0.0905,-0.0905,-0.0906,-0.0906,0,-0.038,-0.04,-0.0461,-0.0544,-0.0639,-0.0716,-0.0791,-0.0861,-0.0945,-0.1071,-0.105,-0.1051,-0.1078,-0.1009,-0.0985,-0.0949,-0.0895,-0.0852,-0.0858,-0.0863,-0.0812,-0.0769,-0.0782,0,0,0,0,0,-0.0327,-0.0335,-0.0404,-0.0481,-0.0585,-0.0638,-0.0786,-0.0866,-0.0992,-0.0962,-0.101,-0.0973,-0.0921,-0.0917,-0.0856,-0.0948,-0.0906,-0.0875,-0.0861,-0.0879,-0.0884,-0.0825,0,0,0,0,0,0,-0.0283,-0.0316,-0.0366,-0.042,-0.0464,-0.0566,-0.0654,-0.0748,-0.0745,-0.0855,-0.082,-0.0894,-0.0846,-0.0908,-0.0815,-0.0821,-0.0792,-0.0891,-0.0889,-0.0876,-0.0881,-0.0885,-0.0826,0,0,0,0,0]},{"header":{"parameterUnit":"m.s-1","parameterCategory":2,"la1":30.2991,"la2":30.254,"lo1":-89.0895,"lo2":-89.0444,"dy":0.0017,"dx":0.0017,"nx":28,"ny":28,"refTime":"2024-04-17T09:00:00:Z","depth":"4","parameterNumber":3,"parameterNumberName":"V-component_of_CURRENTS"},"data":[0,0,0,0,0,0,0,0,0,0,0,0,0,0,0,0,0,0,0,0,0,0,0,0,0,0,0,0,0,0,0,0,0,0,0,0,0,0,0,0,0,0,0,0,0,0,0,0,0,0,0,0,0,0,0,0,0,0,-0.0123,-0.0123,0,-0.0126,-0.0126,-0.0126,-0.0119,-0.0119,-0.0119,-0.0119,-0.0086,-0.0086,-0.0085,0,0,0,0,0,0,0,0,0,0,0,0,0,-0.0082,-0.0083,-0.0123,-0.0123,-0.0123,-0.0126,-0.0126,-0.0126,-0.0119,-0.0119,-0.0119,-0.0119,-0.0087,-0.0086,-0.0085,0,0,0,0,0,0,0,0,0,0,0,0,0,-0.0094,-0.0084,-0.0123,-0.012,-0.012,-0.0126,-0.0126,-0.0126,-0.012,-0.0119,-0.0119,-0.0119,-0.0087,-0.0086,-0.0085,-0.0085,0,0,-0.0082,-0.0081,0,0,0,0,0,0,0,0,-0.0093,-0.0096,-0.012,-0.012,-0.012,-0.0122,-0.01,-0.011,-0.012,-0.0119,-0.0119,-0.0119,-0.0095,-0.0094,-0.0095,-0.0083,-0.0082,-0.0082,-0.0081,-0.0081,-0.008,0,0,0,0,0,0,0,-0.0093,-0.0095,-0.0124,-0.0121,-0.012,-0.0109,-0.0111,-0.0102,-0.0108,-0.0119,-0.0119,-0.012,-0.0095,-0.0096,-0.0094,-0.0081,-0.0082,-0.0081,-0.008,-0.008,-0.005,-0.005,0,0,0,0,0,0,-0.0095,-0.0095,-0.0124,-0.0124,-0.0106,-0.011,-0.0112,-0.0122,-0.0109,-0.0107,-0.012,-0.0119,-0.0098,-0.0095,-0.0093,-0.0073,-0.0081,-0.008,-0.0079,-0.005,-0.005,-0.005,0,0,0,0,0,0,-0.0094,-0.0098,-0.0124,-0.0109,-0.0111,-0.0111,-0.0122,-0.0122,-0.0125,-0.011,-0.0107,-0.0123,-0.0098,-0.0094,-0.0087,-0.0073,-0.0079,-0.0078,-0.005,-0.005,-0.005,-0.0046,0,0,0,0,0,0,-0.0093,-0.0098,-0.0105,-0.0109,-0.0112,-0.0128,-0.0123,-0.0122,-0.0125,-0.0125,-0.0112,-0.0108,-0.0097,-0.0089,-0.0086,-0.0071,-0.0077,-0.0051,-0.005,-0.005,-0.0046,-0.0045,-0.0045,0,0,0,0,0,-0.0092,-0.0108,-0.0106,-0.0109,-0.0123,-0.0128,-0.0129,-0.0127,-0.0126,-0.0128,-0.012,-0.0109,-0.0085,-0.0089,-0.0085,-0.007,-0.0051,-0.005,-0.005,-0.0046,-0.0046,-0.0045,0,0,0,0,0,0,-0.0096,-0.0109,-0.0107,-0.0126,-0.0125,-0.0127,-0.0132,-0.013,-0.0127,-0.0128,-0.0112,-0.0108,-0.0095,-0.0087,-0.0092,-0.0061,-0.0064,-0.0063,-0.0062,-0.0061,-0.006,-0.0053,-0.0077,0,0,0,0,0,-0.01,-0.0115,-0.0118,-0.0132,-0.0134,-0.0133,-0.0135,-0.0135,-0.0133,-0.0132,-0.0119,-0.0106,-0.0091,-0.0081,-0.0071,-0.0058,-0.0039,-0.0044,-0.0044,-0.0043,-0.0035,0.0016,0.0023,-0.0049,-0.0049,-0.0049,0,0,-0.0106,-0.0114,-0.0123,-0.0134,-0.0135,-0.0135,-0.0134,-0.0142,-0.0133,-0.0128,-0.0115,-0.0107,-0.0089,-0.0072,-0.0065,-0.0063,-0.0018,-0.0042,-0.0042,-0.0034,0.0018,0.0025,0.0031,-0.0048,-0.0048,-0.0048,0,0,-0.0123,-0.0132,-0.0147,-0.0144,-0.0148,-0.0144,-0.0147,-0.0147,-0.0139,-0.0131,-0.0119,-0.0103,-0.0087,-0.0064,-0.0051,-0.0041,-0.002,-0.0039,-0.0023,0.0026,0.0033,0.0039,0.005,0.0057,-0.0034,-0.0034,-0.0034,0,-0.0127,-0.0147,-0.015,-0.0155,-0.0151,-0.0148,-0.015,-0.014,-0.0135,-0.0121,-0.0126,-0.0091,-0.0077,-0.0042,-0.0036,-0.0037,-0.0019,-0.0027,0.0029,0.0036,0.0042,0.0051,0.0059,-0.0034,-0.0034,-0.0034,-0.0034,0,-0.015,-0.0159,-0.0166,-0.0168,-0.0161,-0.0168,-0.015,-0.014,-0.0131,-0.0116,-0.0089,-0.0074,-0.0049,-0.0041,-0.0033,0.0017,0.0009,0.0021,0.0029,0.005,0.0057,0.0066,-0.0033,-0.0034,-0.0034,-0.0034,0,0,-0.0176,-0.0183,-0.0184,-0.0182,-0.0169,-0.0168,-0.0145,-0.0123,-0.0105,-0.009,-0.0061,-0.0033,-0.0025,-0.001,0.0001,0.0045,0.0098,0.0054,0.0056,0.0067,0.0184,0.0152,0.0157,0.0125,0.0127,0.0128,0.0163,0,-0.0192,-0.0211,-0.0199,-0.0197,-0.0203,-0.0174,-0.015,-0.0123,-0.0099,-0.0068,-0.0038,-0.0014,-0.0012,-0.0004,0.0044,0.0082,0.0124,0.0086,0.0159,0.0161,0.0134,0.0168,0.0135,0.0169,0.0171,0.0172,0.0173,0,-0.0215,-0.0225,-0.0236,-0.0214,-0.0211,-0.0201,-0.016,-0.0138,-0.0084,-0.0062,-0.0027,-0.0005,0.0045,0.0049,0.0134,0.0109,0.0151,0.0182,0.0185,0.0164,0.0146,0.015,0.0188,0.0187,0.0186,0.0185,0.0184,0,-0.0244,-0.0243,-0.0255,-0.0249,-0.0226,-0.0213,-0.0194,-0.0143,-0.0125,-0.0062,-0.0047,0.0018,0.0038,0.0112,0.016,0.0159,0.0252,0.0259,0.0267,0.0263,0.0279,0.0272,0.0341,0.0341,0.0341,0.034,0.034,0,-0.0267,-0.0274,-0.0274,-0.0281,-0.0283,-0.0243,-0.0229,-0.0194,-0.0147,-0.0122,-0.0057,-0.0031,0.0062,0.0116,0.0172,0.0231,0.0262,0.0278,0.0283,0.0274,0.0267,0.0283,0.0276,0.0342,0.0341,0.0341,0.0341,0,-0.0299,-0.03,-0.0316,-0.0306,-0.0303,-0.0306,-0.0278,-0.0266,-0.0209,-0.0175,-0.0158,-0.0067,0.0012,0.0086,0.0199,0.023,0.03,0.0317,0.0275,0.0275,0.0273,0.0266,0.0338,0.0338,0.0337,0.0337,0.0336,0,-0.0317,-0.0334,-0.0354,-0.0372,-0.0374,-0.0371,-0.037,-0.0314,-0.0297,-0.02,-0.0191,-0.01,-0.0036,0.0083,0.0175,0.0276,0.0291,0.0315,0.0327,0.0282,0.028,0.0273,0.0266,0.0336,0.0336,0.0335,0.0335,0,-0.0352,-0.0367,-0.0386,-0.0433,-0.0449,-0.0458,-0.0448,-0.044,-0.0359,-0.0309,-0.0213,-0.0121,-0.0032,0.0077,0.0149,0.0225,0.0296,0.0311,0.0313,0.0325,0.028,0.0277,0.0271,0.0334,0.0334,0.0334,0.0334,0,-0.0377,-0.0408,-0.0443,-0.0476,-0.0513,-0.0533,-0.0519,-0.0476,-0.0441,-0.0318,-0.0286,-0.0154,-0.0062,0.0051,0.0121,0.0187,0.0213,0.0231,0.0238,0.0241,0.0203,0.0131,0.0155,0,0,0,0,0,-0.0386,-0.0423,-0.0477,-0.0518,-0.0563,-0.0574,-0.0562,-0.0533,-0.0453,-0.0396,-0.0333,-0.0237,-0.0086,-0.0013,0.0048,0.0094,0.0202,0.0166,0.022,0.0325,0.0327,0.0297,0,0,0,0,0,0,-0.0391,-0.0445,-0.0482,-0.0549,-0.0582,-0.062,-0.0614,-0.0562,-0.0515,-0.0419,-0.0343,-0.0239,-0.0107,-0.0129,0.0043,0.007,0.0108,0.0254,0.0255,0.0324,0.0325,0.0327,0.0298,0,0,0,0,0]}]]